Flight Information

DEPARTURE
SANTA ANA, CA
Elevation:
55
Runways:
2L/20R - 5700x150 - ASPH-G
2R/20L - 2886x75 - ASPH-G
Active PE Departure:
20L - 20R
Current PE ATIS:
O
Altimeter:
30.12
Remarks:
V F R DEPARTURES CONTACT CLEARANCE DELIVERY, ADVISE ON COURSE HEADING, ALTITUDE, AND IF FLIGHT FOLLOWING IS REQUESTED.
ATIS:
126 714-546-2279
Clearance Delivery:
118.0 121.85
Ground:
120.8 (East) 132.25 (West)
Tower:
119.9 (Rwy 2R-20L) 126.8 (Rwy 2L-20R)
DESTINATION
,
Elevation:
TPA:
1000 (est.)


6773.3 NM74° True-14° Var60° HDG

Flight Plan:
(click to file on line)

1. Type
2. Aircraft Identification
3. Aircraft Type / Special Equipment
4. True Airspeed
kts
5. Departure Airport
(ICAO code)
6. Arriving Airport
(ICAO code)
7. Cruising Altitude
ft
8. Alternate Airport
(ICAO code)
9. Route of Flight
10. Remarks


00:00:00 Departure ATIS: Destination ATIS:

Clearance Limit:
Route:
Altitude: Expect in minutes
Frequency:
Transponder: (7500 Hijack / 7600 Lost Comms / 7700 Emergency)


KSNA 040353Z 00000KT 10SM FEW200 17/12 A3009 RMK AO2 SLP188 T01670122
Time: 2022-12-04T03:53:00Z
1670648418
Winds: calm
Visibility: 10.0 sm
Clouds (AGL): FEW 20000
Temperature: 16.7 C
Dew Point: 12.2 C
Pressure: 30.088583 in Hgbr


Notes:

Data extracted from FAA Digital Chart Supplement. Effective: 0901Z Thursday, 27 JAN 2022 to 0900z Thursday, 24 MAR 2022
Current ATIS data is provided courtisy of PilotEdge.